Location: Unspecified
(39.0670°S, 0.0000°E)
Time: 21:04:26
(UTC+00:00)

Envisat - Pass Details

Date: 28 June 2019
Orbit: 764 x 766 km, 98.1° (Epoch: 17 July)

Event Time Altitude Azimuth Distance (km) Brightness Sun altitude
Exits shadow 19:26:13 40° 341° (NNW) 1,129 3.9 -30.1°
Drops below altitude 10° 19:29:24 10° 344° (NNW) 2,307 5.7 -30.7°
Sets 19:31:41 0° 344° (NNW) 3,225 6.5 -31.1°
